Location: Kikino
(54.4440°N, 112.0940°W)
Time: 11:27:57
(UTC+00:00)

deb Explorer IX - Visible Passes

Search period start: 19 May 2024 00:00
Search period end: 29 May 2024 00:00
Orbit: 513 x 892 km, 38.7° (Epoch: 19 May)

Date Brightness Start Highest point End Pass type
(mag) Time Alt. Az. Time Alt. Az. Time Alt. Az.
25 May ? 05:03:44 10° S 05:04:45 11° S 05:05:30 10° SSE visible
26 May ? 05:46:08 10° SSW 05:47:10 11° S 05:47:10 11° S visible
27 May ? 04:45:28 10° SSW 04:47:24 12° S 04:49:17 10° SSE visible
28 May ? 05:28:34 10° SSW 05:30:03 11° SSW 05:31:00 11° S visible
